sat.trackr.live / text

‹ back to catalog

LUCH 5B (SDCM/PRN 125)

NORAD 38977 · 2012-061A

PAYLOAD ACTIVE UNKNOWN

§ Identity

Operator
Country
CIS
Launch date
2012-11-02
Launch site
TYMSC
Launch vehicle
Mass (kg)
RCS (m²)
251.19

Purposes: comms, nav

External: N2YO · Heavens-Above · Gunter

§ Orbital elements

Epoch: 2026-09-20T04:51:56.228832Z

Period
1,436.07 min
Inclination
10.6854°
Eccentricity
0.0005872
Mean motion
1.00273421 rev/d
Perigee alt
35,761.4 km
Apogee alt
35,810.9 km
Semi-major
42,164.3 km
B*
0.0000e+0
RAAN
48.9112°
Arg perigee
164.6917°
Mean anomaly
202.1736°
Rev number
5,056

§ Raw data

LUCH 5B (SDCM/PRN 125)1 38977U 12061A   26263.20273413 -.00000137  00000+0  00000+0 0  99952 38977  10.6854  48.9112 0005872 164.6917 202.1736  1.00273421 50568

JSON: /api/v1/satellites/38977 · /tle

For live sub-satellite position, see the globe view (requires WebGL).

§ Visibility from observer

Set your observer location to see the next 7 days of passes ≥ 10°. The values pass through the URL so the page stays shareable.

No JS? Fill the form by hand. The geolocation button needs JavaScript.